South Hill, VA

8:27 AM EST on December 09, 2019 (GMT -0500)
Mecklenburg-Brunswick Regional

Weather History for KAVC - September, 2019

Change the Weather History Date:

Friday, September 13, 2019

  Actual Average (KEMV) Record (KEMV)
Temperature  
Mean Temperature 73 °F -  
Max Temperature 77 °F 85 °F 97 °F (1983)
Min Temperature 68 °F 59 °F 49 °F (1993)
Cooling Degree Days 8    
Growing Degree Days 23 (Base 50)    
Moisture  
Dew Point 71 °F    
Average Humidity 95    
Maximum Humidity 100    
Minimum Humidity 86    
Precipitation  
Precipitation 0.03 in - - ()
Sea Level Pressure  
Sea Level Pressure 30.31 in    
Wind  
Wind Speed 4 mph (NE)    
Max Wind Speed 13 mph    
Max Gust Speed 20 mph    
Averages and records for this station are not official NWS values.
T = Trace of Precipitation, MM = Missing Value Source: NWS Daily Summary

Daily Weather History Graph

Daily Weather History Graph

Search for Another Location

Airport or City:

Astronomy

Sep. 13, 2019 Rise Set
Actual Time 6:52 AM EDT 7:23 PM EDT
Civil Twilight 6:26 AM EDT 7:48 PM EDT
Nautical Twilight 5:56 AM EDT 8:19 PM EDT
Astronomical Twilight 5:24 AM EDT 8:50 PM EDT
Moon 7:33 PM EDT (9/13) 6:10 AM EDT (9/13)
Length of Visible Light 13h 22m
Length of Day
12h 30m
Full, 100% of the Moon is Illuminated
Sep 13
Full
Sep 14
Full
Sep 21
Last Quarter
Sep 28
New
Oct 5
First Quarter

Hourly Weather History & Observations

Time (EDT) Temp. Dew Point Humidity Pressure Visibility Wind Dir Wind Speed Gust Speed Precip Events Conditions
12:15 AM 73.6 °F 73.6 °F 100% 30.16 in - North 12.7 mph - N/A   Unknown
12:35 AM 78.4 °F 74.8 °F 89% 30.17 in - North 4.6 mph - N/A   Unknown
12:55 AM 77.9 °F 73.8 °F 87% 30.17 in - Calm Calm - N/A   Unknown
1:15 AM 77.0 °F 73.2 °F 88% 30.19 in - NNE 6.9 mph - N/A   Unknown
1:35 AM 76.5 °F 73.4 °F 90% 30.20 in - NNE 6.9 mph - N/A Thunderstorm Thunderstorm
1:55 AM 76.1 °F 73.4 °F 91% 30.20 in - NE 4.6 mph - N/A Thunderstorm Thunderstorm
2:15 AM 75.4 °F 72.5 °F 91% 30.19 in - NNE 4.6 mph - N/A Thunderstorm Thunderstorm
2:35 AM 73.6 °F 72.5 °F 96% 30.19 in - Calm Calm - N/A   Unknown
2:55 AM 73.6 °F 71.8 °F 94% 30.19 in - Calm Calm - N/A   Unknown
3:15 AM 73.4 °F 71.6 °F 94% 30.19 in - Calm Calm - N/A   Unknown
3:35 AM 73.0 °F 71.6 °F 95% 30.19 in - Calm Calm - N/A Thunderstorm Thunderstorm
3:55 AM 71.8 °F 71.8 °F 100% 30.20 in - Calm Calm - 0.02 in Thunderstorm Thunderstorm
4:15 AM 71.6 °F 71.6 °F 100% 30.21 in - Calm Calm - 0.01 in   Unknown
4:35 AM 71.1 °F 71.1 °F 100% 30.22 in - Calm Calm - 0.01 in   Unknown
5:15 AM 70.7 °F 70.7 °F 100% 30.23 in - Calm Calm - N/A   Mostly Cloudy
5:35 AM 70.2 °F 70.2 °F 100% 30.24 in - North 3.5 mph - N/A   Overcast
5:55 AM 70.0 °F 70.0 °F 100% 30.24 in - Calm Calm - N/A   Mostly Cloudy
6:15 AM 69.8 °F 69.8 °F 100% 30.25 in - North 5.8 mph - N/A   Unknown
6:35 AM 69.8 °F 69.8 °F 100% 30.26 in - North 4.6 mph - N/A   Unknown
6:55 AM 69.8 °F 69.8 °F 100% 30.26 in - North 4.6 mph - N/A   Unknown
7:15 AM 69.4 °F 69.4 °F 100% 30.27 in - North 4.6 mph - N/A   Unknown
7:35 AM 70.0 °F 70.0 °F 100% 30.27 in - North 3.5 mph - N/A   Mostly Cloudy
7:55 AM 70.7 °F 70.7 °F 100% 30.28 in - Calm Calm - N/A   Overcast
8:15 AM 70.9 °F 70.9 °F 100% 30.28 in - NNE 3.5 mph - N/A   Overcast
8:35 AM 71.6 °F 71.6 °F 100% 30.29 in - North 3.5 mph - N/A   Overcast
8:55 AM 72.5 °F 72.5 °F 100% 30.30 in - NNE 5.8 mph - N/A   Overcast
9:15 AM 73.4 °F 73.4 °F 100% 30.30 in - NNE 4.6 mph - N/A   Overcast
9:35 AM 74.5 °F 74.3 °F 99% 30.31 in - NNE 3.5 mph - N/A   Overcast
9:55 AM 74.8 °F 74.3 °F 98% 30.31 in - NE 3.5 mph - N/A   Overcast
10:15 AM 75.2 °F 74.3 °F 97% 30.32 in - NNE 3.5 mph - N/A   Overcast
10:35 AM 75.2 °F 74.1 °F 96% 30.33 in - NE 4.6 mph - N/A   Overcast
11:15 AM 74.5 °F 73.8 °F 98% 30.34 in - NNE 5.8 mph - N/A   Overcast
11:35 AM 75.4 °F 73.4 °F 94% 30.34 in - East 3.5 mph - N/A   Overcast
11:55 AM 75.2 °F 73.4 °F 94% 30.34 in - NE 4.6 mph - N/A   Overcast
12:15 PM 73.4 °F 73.4 °F 100% 30.35 in - ENE 3.5 mph - N/A   Overcast
12:35 PM 74.3 °F 72.7 °F 95% 30.36 in - East 5.8 mph - N/A   Overcast
12:55 PM 74.5 °F 72.5 °F 94% 30.36 in - ENE 3.5 mph - N/A   Unknown
1:15 PM 75.6 °F 72.5 °F 90% 30.35 in - NE 8.1 mph 19.6 mph N/A   Overcast
1:35 PM 72.9 °F 72.5 °F 99% 30.36 in - Calm Calm - N/A   Unknown
1:55 PM 73.4 °F 72.3 °F 96% 30.35 in - ENE 3.5 mph - N/A   Unknown
2:15 PM 75.6 °F 72.5 °F 90% 30.35 in - East 4.6 mph - N/A   Unknown
2:35 PM 74.7 °F 70.7 °F 87% 30.35 in - NE 5.8 mph - N/A   Unknown
2:55 PM 76.1 °F 71.6 °F 86% 30.35 in - ESE 3.5 mph - N/A   Unknown
3:15 PM 73.8 °F 72.7 °F 96% 30.34 in - Calm Calm - N/A   Overcast
3:35 PM 75.0 °F 71.6 °F 89% 30.34 in - ENE 4.6 mph - N/A   Unknown
3:55 PM 72.7 °F 71.8 °F 97% 30.34 in - NE 3.5 mph - N/A   Unknown
4:15 PM 73.4 °F 71.6 °F 94% 30.34 in - NE 5.8 mph - N/A   Overcast
4:35 PM 74.1 °F 71.1 °F 90% 30.34 in - NE 4.6 mph - N/A   Overcast
4:55 PM 74.3 °F 70.5 °F 88% 30.34 in - ENE 3.5 mph - N/A   Overcast
5:15 PM 73.6 °F 69.6 °F 87% 30.35 in - NE 4.6 mph - N/A   Overcast
5:35 PM 73.4 °F 69.4 °F 87% 30.36 in - ENE 3.5 mph - N/A   Overcast
6:15 PM 72.7 °F 69.4 °F 90% 30.36 in - NE 4.6 mph - N/A   Overcast
6:35 PM 72.1 °F 69.1 °F 90% 30.35 in - NE 5.8 mph - N/A   Unknown
6:55 PM 71.6 °F 68.9 °F 91% 30.36 in - East 3.5 mph - N/A   Unknown
7:15 PM 71.2 °F 68.4 °F 91% 30.36 in - Calm Calm - N/A   Unknown
7:35 PM 70.9 °F 68.2 °F 91% 30.36 in - Calm Calm - N/A   Unknown
7:55 PM 70.3 °F 67.6 °F 91% 30.36 in - ENE 3.5 mph - N/A   Overcast
8:15 PM 70.2 °F 67.5 °F 91% 30.37 in - Calm Calm - N/A   Overcast
8:35 PM 69.8 °F 67.1 °F 91% 30.38 in - Calm Calm - N/A   Overcast
8:55 PM 69.8 °F 67.1 °F 91% 30.39 in - Calm Calm - N/A   Overcast
9:15 PM 69.8 °F 67.1 °F 91% 30.39 in - Calm Calm - N/A   Overcast
9:35 PM 69.8 °F 67.6 °F 93% 30.40 in - North 4.6 mph - N/A   Overcast
9:55 PM 69.3 °F 67.5 °F 94% 30.40 in - NNE 3.5 mph - N/A   Unknown
10:15 PM 69.1 °F 67.8 °F 96% 30.40 in - NNE 3.5 mph - N/A   Overcast
10:35 PM 68.9 °F 67.6 °F 96% 30.39 in - NNE 3.5 mph - N/A   Overcast
10:55 PM 68.9 °F 67.5 °F 95% 30.39 in - Calm Calm - N/A   Overcast
11:15 PM 68.9 °F 67.3 °F 95% 30.38 in - Calm Calm - N/A   Overcast
11:55 PM 68.9 °F 67.3 °F 95% 30.38 in - Calm Calm - N/A   Overcast